Time,TemperatureF,DewpointF,PressureIn,WindDirection,WindDirectionDegrees,WindSpeedMPH,WindSpeedGustMPH,Humidity,HourlyPrecipIn,Conditions,Clouds,dailyrainin,SoftwareType,DateUTC
2013-08-12 00:03:00,85.0,71.0,29.93,South,191,3.0,5.0,63,0.00,,,0.00,WeatherCatV1.15B25,2013-08-12 05:03:00,
2013-08-12 00:08:00,84.9,70.9,29.93,SSW,202,0.0,10.0,63,0.00,,,0.00,WeatherCatV1.15B25,2013-08-12 05:08:00,
2013-08-12 00:13:00,84.9,71.3,29.93,SSW,196,5.0,7.0,64,0.00,,,0.00,WeatherCatV1.15B25,2013-08-12 05:13:00,
2013-08-12 00:18:00,84.7,71.1,29.93,South,188,0.0,0.0,64,0.00,,,0.00,WeatherCatV1.15B25,2013-08-12 05:18:00,
2013-08-12 00:23:00,84.6,71.5,29.93,SW,227,0.0,5.0,65,0.00,,,0.00,WeatherCatV1.15B25,2013-08-12 05:23:00,
2013-08-12 00:28:00,84.4,71.8,29.93,South,191,0.0,5.0,66,0.00,,,0.00,WeatherCatV1.15B25,2013-08-12 05:28:00,
2013-08-12 00:33:00,84.2,72.0,29.93,SSW,205,6.0,7.0,67,0.00,,,0.00,WeatherCatV1.15B25,2013-08-12 05:33:00,
2013-08-12 00:38:00,84.0,72.3,29.93,SW,234,2.0,3.0,68,0.00,,,0.00,WeatherCatV1.15B25,2013-08-12 05:38:00,
2013-08-12 00:43:00,83.9,72.2,29.93,SW,230,2.0,4.0,68,0.00,,,0.00,WeatherCatV1.15B25,2013-08-12 05:43:00,
2013-08-12 00:48:00,83.7,72.4,29.93,SSW,211,0.0,3.0,69,0.00,,,0.00,WeatherCatV1.15B25,2013-08-12 05:48:00,
2013-08-12 00:53:00,83.5,72.2,29.93,SE,146,0.0,3.0,69,0.00,,,0.00,WeatherCatV1.15B25,2013-08-12 05:53:00,
2013-08-12 00:58:00,83.4,72.1,29.93,SW,214,1.0,5.0,69,0.00,,,0.00,WeatherCatV1.15B25,2013-08-12 05:58:00,
2013-08-12 01:01:00,83.3,72.5,29.92,SSW,208,1.0,5.0,70,0.00,,,0.00,WeatherCatV1.15B25,2013-08-12 06:01:00,
2013-08-12 01:06:00,83.1,72.3,29.92,SW,215,3.0,4.0,70,0.00,,,0.00,WeatherCatV1.15B25,2013-08-12 06:06:00,
2013-08-12 01:11:00,83.0,72.2,29.92,West,269,0.0,2.0,70,0.00,,,0.00,WeatherCatV1.15B25,2013-08-12 06:11:00,
2013-08-12 01:16:00,82.9,72.1,29.92,WSW,258,0.0,3.0,70,0.00,,,0.00,WeatherCatV1.15B25,2013-08-12 06:16:00,
2013-08-12 01:21:00,82.7,72.3,29.92,WSW,248,0.0,0.0,71,0.00,,,0.00,WeatherCatV1.15B25,2013-08-12 06:21:00,
2013-08-12 01:26:00,82.7,72.3,29.92,SW,236,0.0,3.0,71,0.00,,,0.00,WeatherCatV1.15B25,2013-08-12 06:26:00,
2013-08-12 01:31:00,82.6,72.2,29.92,SSW,205,0.0,0.0,71,0.00,,,0.00,WeatherCatV1.15B25,2013-08-12 06:31:00,
2013-08-12 01:36:00,82.5,72.1,29.92,SW,230,0.0,3.0,71,0.00,,,0.00,WeatherCatV1.15B25,2013-08-12 06:36:00,
2013-08-12 01:41:00,82.5,72.5,29.92,South,186,0.0,5.0,72,0.00,,,0.00,WeatherCatV1.15B25,2013-08-12 06:41:00,
2013-08-12 01:46:00,82.4,72.4,29.92,SSW,211,0.0,3.0,72,0.00,,,0.00,WeatherCatV1.15B25,2013-08-12 06:46:00,
2013-08-12 01:51:00,82.3,72.3,29.92,SW,215,0.0,3.0,72,0.00,,,0.00,WeatherCatV1.15B25,2013-08-12 06:51:00,
2013-08-12 01:56:00,82.2,72.2,29.92,SSW,209,0.0,2.0,72,0.00,,,0.00,WeatherCatV1.15B25,2013-08-12 06:56:00,
2013-08-12 02:01:00,82.1,72.2,29.92,SSE,147,0.0,1.0,72,0.00,,,0.00,WeatherCatV1.15B25,2013-08-12 07:01:00,
2013-08-12 02:06:00,82.0,72.1,29.92,South,186,0.0,3.0,72,0.00,,,0.00,WeatherCatV1.15B25,2013-08-12 07:06:00,
2013-08-12 02:11:00,81.9,72.0,29.92,South,185,0.0,0.0,72,0.00,,,0.00,WeatherCatV1.15B25,2013-08-12 07:11:00,
2013-08-12 02:16:00,81.8,71.9,29.91,South,176,0.0,2.0,72,0.00,,,0.00,WeatherCatV1.15B25,2013-08-12 07:16:00,
2013-08-12 02:21:00,81.7,71.8,29.91,SSW,194,0.0,3.0,72,0.00,,,0.00,WeatherCatV1.15B25,2013-08-12 07:21:00,
2013-08-12 02:26:00,81.6,72.1,29.91,South,173,0.0,1.0,73,0.00,,,0.00,WeatherCatV1.15B25,2013-08-12 07:26:00,
2013-08-12 02:31:00,81.5,72.0,29.91,SSE,166,0.0,0.0,73,0.00,,,0.00,WeatherCatV1.15B25,2013-08-12 07:31:00,
2013-08-12 02:36:00,81.3,71.8,29.91,SSE,166,0.0,1.0,73,0.00,,,0.00,WeatherCatV1.15B25,2013-08-12 07:36:00,
2013-08-12 02:41:00,81.2,71.7,29.91,SSE,166,0.0,0.0,73,0.00,,,0.00,WeatherCatV1.15B25,2013-08-12 07:41:00,
2013-08-12 02:46:00,81.1,72.0,29.91,SSE,166,0.0,0.0,74,0.00,,,0.00,WeatherCatV1.15B25,2013-08-12 07:46:00,
2013-08-12 02:51:00,81.0,71.9,29.91,SSE,166,0.0,0.0,74,0.00,,,0.00,WeatherCatV1.15B25,2013-08-12 07:51:00,
2013-08-12 02:56:00,80.9,71.8,29.91,SSE,166,0.0,0.0,74,0.00,,,0.00,WeatherCatV1.15B25,2013-08-12 07:56:00,
2013-08-12 03:01:00,80.8,71.7,29.91,SSE,166,0.0,0.0,74,0.00,,,0.00,WeatherCatV1.15B25,2013-08-12 08:01:00,
2013-08-12 03:06:00,80.7,71.6,29.91,SSE,166,0.0,0.0,74,0.00,,,0.00,WeatherCatV1.15B25,2013-08-12 08:06:00,
2013-08-12 03:11:00,80.6,71.9,29.91,SSE,166,0.0,0.0,75,0.00,,,0.00,WeatherCatV1.15B25,2013-08-12 08:11:00,
2013-08-12 03:16:00,80.5,71.8,29.92,SSE,166,0.0,0.0,75,0.00,,,0.00,WeatherCatV1.15B25,2013-08-12 08:16:00,
2013-08-12 03:21:00,80.4,71.7,29.92,SSE,166,0.0,0.0,75,0.00,,,0.00,WeatherCatV1.15B25,2013-08-12 08:21:00,
2013-08-12 03:26:00,80.3,71.6,29.92,SSE,166,0.0,0.0,75,0.00,,,0.00,WeatherCatV1.15B25,2013-08-12 08:26:00,
2013-08-12 03:31:00,80.3,72.0,29.91,SW,219,0.0,0.0,76,0.00,,,0.00,WeatherCatV1.15B25,2013-08-12 08:31:00,
2013-08-12 03:36:00,80.2,71.9,29.91,SW,219,0.0,0.0,76,0.00,,,0.00,WeatherCatV1.15B25,2013-08-12 08:36:00,
2013-08-12 03:41:00,80.2,71.9,29.91,SW,219,0.0,0.0,76,0.00,,,0.00,WeatherCatV1.15B25,2013-08-12 08:41:00,
2013-08-12 03:46:00,80.1,71.8,29.91,SW,234,0.0,2.0,76,0.00,,,0.00,WeatherCatV1.15B25,2013-08-12 08:46:00,
2013-08-12 03:51:00,80.0,72.1,29.91,SSW,197,0.0,0.0,77,0.00,,,0.00,WeatherCatV1.15B25,2013-08-12 08:51:00,
2013-08-12 03:56:00,80.0,72.1,29.91,South,172,0.0,0.0,77,0.00,,,0.00,WeatherCatV1.15B25,2013-08-12 08:56:00,
2013-08-12 04:01:00,79.9,72.0,29.91,SSE,159,0.0,0.0,77,0.00,,,0.00,WeatherCatV1.15B25,2013-08-12 09:01:00,
2013-08-12 04:06:00,79.8,71.9,29.91,SE,146,0.0,0.0,77,0.00,,,0.00,WeatherCatV1.15B25,2013-08-12 09:06:00,
2013-08-12 04:11:00,79.7,71.8,29.91,SSE,163,0.0,0.0,77,0.00,,,0.00,WeatherCatV1.15B25,2013-08-12 09:11:00,
2013-08-12 04:16:00,79.7,71.8,29.91,SSE,165,0.0,2.0,77,0.00,,,0.00,WeatherCatV1.15B25,2013-08-12 09:16:00,
2013-08-12 04:21:00,79.6,71.7,29.91,SSE,165,0.0,0.0,77,0.00,,,0.00,WeatherCatV1.15B25,2013-08-12 09:21:00,
2013-08-12 04:26:00,79.6,72.1,29.91,SSE,165,0.0,0.0,78,0.00,,,0.00,WeatherCatV1.15B25,2013-08-12 09:26:00,
2013-08-12 04:31:00,79.5,72.0,29.91,SSE,165,0.0,0.0,78,0.00,,,0.00,WeatherCatV1.15B25,2013-08-12 09:31:00,
2013-08-12 04:36:00,79.4,71.9,29.91,SSE,166,0.0,1.0,78,0.00,,,0.00,WeatherCatV1.15B25,2013-08-12 09:36:00,
2013-08-12 04:41:00,79.3,71.8,29.91,SSE,166,0.0,1.0,78,0.00,,,0.00,WeatherCatV1.15B25,2013-08-12 09:41:00,
2013-08-12 04:46:00,79.2,71.7,29.91,SSE,166,0.0,0.0,78,0.00,,,0.00,WeatherCatV1.15B25,2013-08-12 09:46:00,
2013-08-12 04:51:00,79.1,71.6,29.91,SSE,166,0.0,0.0,78,0.00,,,0.00,WeatherCatV1.15B25,2013-08-12 09:51:00,
2013-08-12 04:56:00,79.0,71.9,29.91,SSE,166,0.0,0.0,79,0.00,,,0.00,WeatherCatV1.15B25,2013-08-12 09:56:00,
2013-08-12 05:01:00,78.9,71.8,29.91,SSE,166,0.0,0.0,79,0.00,,,0.00,WeatherCatV1.15B25,2013-08-12 10:01:00,
2013-08-12 05:06:00,78.8,71.7,29.91,SSE,166,0.0,0.0,79,0.00,,,0.00,WeatherCatV1.15B25,2013-08-12 10:06:00,
2013-08-12 05:11:00,78.7,71.6,29.91,SSE,166,0.0,0.0,79,0.00,,,0.00,WeatherCatV1.15B25,2013-08-12 10:11:00,
2013-08-12 05:16:00,78.6,71.9,29.91,SSE,166,0.0,0.0,80,0.00,,,0.00,WeatherCatV1.15B25,2013-08-12 10:16:00,
2013-08-12 05:21:00,78.5,71.8,29.91,SSE,166,0.0,0.0,80,0.00,,,0.00,WeatherCatV1.15B25,2013-08-12 10:21:00,
2013-08-12 05:26:00,78.5,71.8,29.91,SSE,166,0.0,0.0,80,0.00,,,0.00,WeatherCatV1.15B25,2013-08-12 10:26:00,
2013-08-12 05:31:00,78.4,71.7,29.91,SSE,159,0.0,1.0,80,0.00,,,0.00,WeatherCatV1.15B25,2013-08-12 10:31:00,
2013-08-12 05:36:00,78.4,71.7,29.91,SSE,157,0.0,1.0,80,0.00,,,0.00,WeatherCatV1.15B25,2013-08-12 10:36:00,
2013-08-12 05:41:00,78.3,72.0,29.91,SSE,157,0.0,0.0,81,0.00,,,0.00,WeatherCatV1.15B25,2013-08-12 10:41:00,
2013-08-12 05:46:00,78.2,71.9,29.91,South,175,0.0,1.0,81,0.00,,,0.00,WeatherCatV1.15B25,2013-08-12 10:46:00,
2013-08-12 05:51:00,78.2,71.9,29.91,South,175,0.0,0.0,81,0.00,,,0.00,WeatherCatV1.15B25,2013-08-12 10:51:00,
2013-08-12 05:56:00,78.2,71.9,29.91,SSE,167,0.0,0.0,81,0.00,,,0.00,WeatherCatV1.15B25,2013-08-12 10:56:00,
2013-08-12 06:01:00,78.1,71.8,29.92,SSE,159,2.0,3.0,81,0.00,,,0.00,WeatherCatV1.15B25,2013-08-12 11:01:00,
2013-08-12 06:06:00,78.1,71.8,29.92,SSE,164,0.0,1.0,81,0.00,,,0.00,WeatherCatV1.15B25,2013-08-12 11:06:00,
2013-08-12 06:11:00,78.1,72.1,29.92,South,174,3.0,3.0,82,0.00,,,0.00,WeatherCatV1.15B25,2013-08-12 11:11:00,
2013-08-12 06:16:00,78.1,72.1,29.92,SSW,213,4.0,4.0,82,0.00,,,0.00,WeatherCatV1.15B25,2013-08-12 11:16:00,
2013-08-12 06:21:00,78.1,72.1,29.92,South,175,0.0,0.0,82,0.00,,,0.00,WeatherCatV1.15B25,2013-08-12 11:21:00,
2013-08-12 06:26:00,78.0,72.0,29.92,SSE,165,0.0,1.0,82,0.00,,,0.00,WeatherCatV1.15B25,2013-08-12 11:26:00,
2013-08-12 06:31:00,78.0,72.0,29.92,SSE,154,0.0,0.0,82,0.00,,,0.00,WeatherCatV1.15B25,2013-08-12 11:31:00,
2013-08-12 06:36:00,77.9,71.9,29.92,SSE,154,0.0,0.0,82,0.00,,,0.00,WeatherCatV1.15B25,2013-08-12 11:36:00,
2013-08-12 06:41:00,77.8,71.8,29.92,SSW,198,0.0,1.0,82,0.00,,,0.00,WeatherCatV1.15B25,2013-08-12 11:41:00,
2013-08-12 06:46:00,77.7,71.8,29.92,South,191,0.0,1.0,82,0.00,,,0.00,WeatherCatV1.15B25,2013-08-12 11:46:00,
2013-08-12 06:51:00,77.6,72.0,29.92,SSW,195,0.0,0.0,83,0.00,,,0.00,WeatherCatV1.15B25,2013-08-12 11:51:00,
2013-08-12 06:56:00,77.5,71.9,29.92,SSE,159,0.0,1.0,83,0.00,,,0.00,WeatherCatV1.15B25,2013-08-12 11:56:00,
2013-08-12 07:01:00,77.5,71.9,29.93,SSE,168,0.0,1.0,83,0.00,,,0.00,WeatherCatV1.15B25,2013-08-12 12:01:00,
2013-08-12 07:06:00,77.4,71.8,29.93,SE,143,0.0,1.0,83,0.00,,,0.00,WeatherCatV1.15B25,2013-08-12 12:06:00,
2013-08-12 07:11:00,77.4,71.8,29.93,SSW,213,0.0,0.0,83,0.00,,,0.00,WeatherCatV1.15B25,2013-08-12 12:11:00,
2013-08-12 07:16:00,77.4,71.8,29.94,SW,222,3.0,3.0,83,0.00,,,0.00,WeatherCatV1.15B25,2013-08-12 12:16:00,
2013-08-12 07:21:00,77.4,72.2,29.94,SW,220,0.0,4.0,84,0.00,,,0.00,WeatherCatV1.15B25,2013-08-12 12:21:00,
2013-08-12 07:26:00,77.5,72.3,29.94,SSW,196,0.0,0.0,84,0.00,,,0.00,WeatherCatV1.15B25,2013-08-12 12:26:00,
2013-08-12 07:31:00,77.6,72.4,29.94,SW,229,0.0,0.0,84,0.00,,,0.00,WeatherCatV1.15B25,2013-08-12 12:31:00,
2013-08-12 07:36:00,77.6,72.4,29.94,WSW,244,0.0,4.0,84,0.00,,,0.00,WeatherCatV1.15B25,2013-08-12 12:36:00,
2013-08-12 07:41:00,77.8,72.6,29.94,SSW,202,0.0,1.0,84,0.00,,,0.00,WeatherCatV1.15B25,2013-08-12 12:41:00,
2013-08-12 07:46:00,77.9,72.7,29.94,SW,217,3.0,6.0,84,0.00,,,0.00,WeatherCatV1.15B25,2013-08-12 12:46:00,
2013-08-12 07:51:00,78.1,72.5,29.94,SW,226,1.0,4.0,83,0.00,,,0.00,WeatherCatV1.15B25,2013-08-12 12:51:00,
2013-08-12 07:56:00,78.2,72.6,29.94,SSW,210,0.0,5.0,83,0.00,,,0.00,WeatherCatV1.15B25,2013-08-12 12:56:00,
2013-08-12 08:01:00,78.4,72.8,29.95,SSW,206,0.0,1.0,83,0.00,,,0.00,WeatherCatV1.15B25,2013-08-12 13:01:00,
2013-08-12 08:06:00,78.5,72.9,29.95,SSW,200,0.0,1.0,83,0.00,,,0.00,WeatherCatV1.15B25,2013-08-12 13:06:00,
2013-08-12 08:11:00,78.6,72.6,29.95,SW,219,6.0,6.0,82,0.00,,,0.00,WeatherCatV1.15B25,2013-08-12 13:11:00,
2013-08-12 08:16:00,78.7,72.7,29.95,SW,232,3.0,5.0,82,0.00,,,0.00,WeatherCatV1.15B25,2013-08-12 13:16:00,
2013-08-12 08:21:00,78.8,72.8,29.95,WSW,238,3.0,7.0,82,0.00,,,0.00,WeatherCatV1.15B25,2013-08-12 13:21:00,
2013-08-12 08:26:00,79.0,73.0,29.95,SSW,205,0.0,7.0,82,0.00,,,0.00,WeatherCatV1.15B25,2013-08-12 13:26:00,
2013-08-12 08:31:00,79.2,73.2,29.95,SSW,212,3.0,9.0,82,0.00,,,0.00,WeatherCatV1.15B25,2013-08-12 13:31:00,
2013-08-12 08:36:00,79.5,73.1,29.95,SW,232,4.0,4.0,81,0.00,,,0.00,WeatherCatV1.15B25,2013-08-12 13:36:00,
2013-08-12 08:41:00,79.8,73.1,29.95,SW,219,5.0,10.0,80,0.00,,,0.00,WeatherCatV1.15B25,2013-08-12 13:41:00,
2013-08-12 08:46:00,80.0,73.3,29.95,SSW,200,3.0,5.0,80,0.00,,,0.00,WeatherCatV1.15B25,2013-08-12 13:46:00,
2013-08-12 08:51:00,80.3,73.5,29.95,SSW,199,0.0,0.0,80,0.00,,,0.00,WeatherCatV1.15B25,2013-08-12 13:51:00,
2013-08-12 08:56:00,80.7,73.6,29.95,SW,221,0.0,5.0,79,0.00,,,0.00,WeatherCatV1.15B25,2013-08-12 13:56:00,
2013-08-12 09:01:00,81.1,73.6,29.95,South,180,3.0,4.0,78,0.00,,,0.00,WeatherCatV1.15B25,2013-08-12 14:01:00,
2013-08-12 09:06:00,81.6,73.7,29.95,SW,236,4.0,7.0,77,0.00,,,0.00,WeatherCatV1.15B25,2013-08-12 14:06:00,
2013-08-12 09:11:00,81.9,74.0,29.95,WSW,252,0.0,1.0,77,0.00,,,0.00,WeatherCatV1.15B25,2013-08-12 14:11:00,
2013-08-12 09:16:00,82.3,74.0,29.96,SW,223,4.0,5.0,76,0.00,,,0.00,WeatherCatV1.15B25,2013-08-12 14:16:00,
2013-08-12 09:21:00,82.7,73.9,29.96,SSW,210,7.0,10.0,75,0.00,,,0.00,WeatherCatV1.15B25,2013-08-12 14:21:00,
2013-08-12 09:26:00,83.2,73.6,29.96,SW,218,0.0,7.0,73,0.00,,,0.00,WeatherCatV1.15B25,2013-08-12 14:26:00,
2013-08-12 09:31:00,83.6,74.0,29.95,SW,219,4.0,10.0,73,0.00,,,0.00,WeatherCatV1.15B25,2013-08-12 14:31:00,
2013-08-12 09:36:00,84.1,74.1,29.95,SSW,211,2.0,3.0,72,0.00,,,0.00,WeatherCatV1.15B25,2013-08-12 14:36:00,
2013-08-12 09:41:00,84.6,74.1,29.95,SSW,204,3.0,7.0,71,0.00,,,0.00,WeatherCatV1.15B25,2013-08-12 14:41:00,
2013-08-12 09:46:00,85.1,74.2,29.95,WSW,241,0.0,7.0,70,0.00,,,0.00,WeatherCatV1.15B25,2013-08-12 14:46:00,
2013-08-12 09:51:00,85.6,74.7,29.95,SW,226,2.0,6.0,70,0.00,,,0.00,WeatherCatV1.15B25,2013-08-12 14:51:00,
2013-08-12 09:56:00,86.0,74.6,29.95,South,190,0.0,10.0,69,0.00,,,0.00,WeatherCatV1.15B25,2013-08-12 14:56:00,
2013-08-12 10:01:00,86.5,74.7,29.95,WSW,246,0.0,10.0,68,0.00,,,0.00,WeatherCatV1.15B25,2013-08-12 15:01:00,
2013-08-12 10:06:00,87.1,74.8,29.95,SSW,194,8.0,8.0,67,0.00,,,0.00,WeatherCatV1.15B25,2013-08-12 15:06:00,
2013-08-12 10:11:00,87.8,74.5,29.95,SW,219,3.0,7.0,65,0.00,,,0.00,WeatherCatV1.15B25,2013-08-12 15:11:00,
2013-08-12 10:16:00,88.5,74.7,29.95,SSW,193,2.0,7.0,64,0.00,,,0.00,WeatherCatV1.15B25,2013-08-12 15:16:00,
2013-08-12 10:21:00,89.1,74.8,29.95,South,183,6.0,11.0,63,0.00,,,0.00,WeatherCatV1.15B25,2013-08-12 15:21:00,
2013-08-12 10:26:00,89.5,74.7,29.95,South,189,2.0,5.0,62,0.00,,,0.00,WeatherCatV1.15B25,2013-08-12 15:26:00,
2013-08-12 10:31:00,90.2,75.4,29.95,SW,226,4.0,5.0,62,0.00,,,0.00,WeatherCatV1.15B25,2013-08-12 15:31:00,
2013-08-12 10:36:00,90.8,74.5,29.95,West,262,4.0,7.0,59,0.00,,,0.00,WeatherCatV1.15B25,2013-08-12 15:36:00,
2013-08-12 10:41:00,91.3,74.9,29.95,SW,233,1.0,4.0,59,0.00,,,0.00,WeatherCatV1.15B25,2013-08-12 15:41:00,
2013-08-12 10:46:00,91.6,74.7,29.95,West,260,2.0,4.0,58,0.00,,,0.00,WeatherCatV1.15B25,2013-08-12 15:46:00,
2013-08-12 10:51:00,91.9,74.4,29.95,SSW,208,2.0,4.0,57,0.00,,,0.00,WeatherCatV1.15B25,2013-08-12 15:51:00,
2013-08-12 10:56:00,92.2,73.7,29.95,WNW,287,2.0,7.0,55,0.00,,,0.00,WeatherCatV1.15B25,2013-08-12 15:56:00,
2013-08-12 11:01:00,92.5,73.9,29.95,SW,236,6.0,12.0,55,0.00,,,0.00,WeatherCatV1.15B25,2013-08-12 16:01:00,
2013-08-12 11:06:00,92.7,74.7,29.95,WSW,258,1.0,5.0,56,0.00,,,0.00,WeatherCatV1.15B25,2013-08-12 16:06:00,
2013-08-12 11:11:00,92.9,74.3,29.95,WSW,244,2.0,5.0,55,0.00,,,0.00,WeatherCatV1.15B25,2013-08-12 16:11:00,
2013-08-12 11:16:00,93.1,74.5,29.95,WNW,292,3.0,6.0,55,0.00,,,0.00,WeatherCatV1.15B25,2013-08-12 16:16:00,
2013-08-12 11:21:00,93.1,74.5,29.95,WSW,247,2.0,7.0,55,0.00,,,0.00,WeatherCatV1.15B25,2013-08-12 16:21:00,
2013-08-12 11:26:00,93.6,74.4,29.95,WSW,239,4.0,7.0,54,0.00,,,0.00,WeatherCatV1.15B25,2013-08-12 16:26:00,
2013-08-12 11:31:00,93.6,73.8,29.95,SSW,202,2.0,4.0,53,0.00,,,0.00,WeatherCatV1.15B25,2013-08-12 16:31:00,
2013-08-12 11:36:00,93.8,74.0,29.95,SSW,209,1.0,6.0,53,0.00,,,0.00,WeatherCatV1.15B25,2013-08-12 16:36:00,
2013-08-12 11:41:00,94.2,75.0,29.95,WSW,244,4.0,10.0,54,0.00,,,0.00,WeatherCatV1.15B25,2013-08-12 16:41:00,
2013-08-12 11:46:00,94.8,74.4,29.95,SW,229,6.0,7.0,52,0.00,,,0.00,WeatherCatV1.15B25,2013-08-12 16:46:00,
2013-08-12 11:51:00,94.8,74.4,29.95,SSW,200,5.0,7.0,52,0.00,,,0.00,WeatherCatV1.15B25,2013-08-12 16:51:00,
2013-08-12 11:56:00,94.9,73.9,29.95,SW,233,3.0,7.0,51,0.00,,,0.00,WeatherCatV1.15B25,2013-08-12 16:56:00,
2013-08-12 12:01:00,95.1,73.5,29.95,SSW,204,2.0,9.0,50,0.00,,,0.00,WeatherCatV1.15B25,2013-08-12 17:01:00,
2013-08-12 12:06:00,95.2,73.6,29.95,SW,222,2.0,5.0,50,0.00,,,0.00,WeatherCatV1.15B25,2013-08-12 17:06:00,
2013-08-12 12:11:00,95.3,73.1,29.95,West,263,5.0,9.0,49,0.00,,,0.00,WeatherCatV1.15B25,2013-08-12 17:11:00,
2013-08-12 12:16:00,95.5,73.2,29.94,SW,236,4.0,6.0,49,0.00,,,0.00,WeatherCatV1.15B25,2013-08-12 17:16:00,
2013-08-12 12:21:00,95.8,73.5,29.94,WSW,245,5.0,8.0,49,0.00,,,0.00,WeatherCatV1.15B25,2013-08-12 17:21:00,
2013-08-12 12:26:00,96.3,74.6,29.94,SSE,161,2.0,4.0,50,0.00,,,0.00,WeatherCatV1.15B25,2013-08-12 17:26:00,
2013-08-12 12:31:00,96.5,74.2,29.94,WSW,243,1.0,6.0,49,0.00,,,0.00,WeatherCatV1.15B25,2013-08-12 17:31:00,
2013-08-12 12:36:00,97.0,74.0,29.94,SSW,211,5.0,5.0,48,0.00,,,0.00,WeatherCatV1.15B25,2013-08-12 17:36:00,
2013-08-12 12:41:00,97.1,74.7,29.94,West,265,4.0,4.0,49,0.00,,,0.00,WeatherCatV1.15B25,2013-08-12 17:41:00,
2013-08-12 12:46:00,97.4,73.7,29.93,WSW,238,3.0,9.0,47,0.00,,,0.00,WeatherCatV1.15B25,2013-08-12 17:46:00,
2013-08-12 12:51:00,97.6,74.5,29.93,NNE,15,0.0,4.0,48,0.00,,,0.00,WeatherCatV1.15B25,2013-08-12 17:51:00,
2013-08-12 12:56:00,98.0,74.3,29.93,SSW,213,0.0,5.0,47,0.00,,,0.00,WeatherCatV1.15B25,2013-08-12 17:56:00,
2013-08-12 13:01:00,98.3,73.2,29.92,SW,227,4.0,10.0,45,0.00,,,0.00,WeatherCatV1.15B25,2013-08-12 18:01:00,
2013-08-12 13:06:00,98.5,74.1,29.92,SSE,168,1.0,4.0,46,0.00,,,0.00,WeatherCatV1.15B25,2013-08-12 18:06:00,
2013-08-12 13:11:00,98.5,73.4,29.92,WSW,238,5.0,6.0,45,0.00,,,0.00,WeatherCatV1.15B25,2013-08-12 18:11:00,
2013-08-12 13:14:00,98.5,72.8,29.92,WSW,252,5.0,6.0,44,0.00,,,0.00,WeatherCatV1.15B25,2013-08-12 18:14:00,
2013-08-12 13:19:00,98.6,72.8,29.92,SSW,211,0.0,2.0,44,0.00,,,0.00,WeatherCatV1.15B25,2013-08-12 18:19:00,
2013-08-12 13:24:00,99.0,73.9,29.92,SSW,197,6.0,8.0,45,0.00,,,0.00,WeatherCatV1.15B25,2013-08-12 18:24:00,
2013-08-12 13:29:00,99.3,74.1,29.92,WNW,293,6.0,9.0,45,0.00,,,0.00,WeatherCatV1.15B25,2013-08-12 18:29:00,
2013-08-12 13:34:00,99.7,73.2,29.92,West,263,4.0,6.0,43,0.00,,,0.00,WeatherCatV1.15B25,2013-08-12 18:34:00,
2013-08-12 13:39:00,99.3,72.1,29.92,SW,215,0.0,5.0,42,0.00,,,0.00,WeatherCatV1.15B25,2013-08-12 18:39:00,
2013-08-12 13:44:00,99.1,74.0,29.91,SSW,210,0.0,1.0,45,0.00,,,0.00,WeatherCatV1.15B25,2013-08-12 18:44:00,
2013-08-12 13:49:00,99.4,73.6,29.91,SW,220,3.0,5.0,44,0.00,,,0.00,WeatherCatV1.15B25,2013-08-12 18:49:00,
2013-08-12 13:54:00,99.6,73.1,29.91,SSW,195,1.0,7.0,43,0.00,,,0.00,WeatherCatV1.15B25,2013-08-12 18:54:00,
2013-08-12 13:59:00,99.7,73.8,29.90,South,190,0.0,2.0,44,0.00,,,0.00,WeatherCatV1.15B25,2013-08-12 18:59:00,
2013-08-12 14:04:00,100.1,72.8,29.90,West,277,2.0,4.0,42,0.00,,,0.00,WeatherCatV1.15B25,2013-08-12 19:04:00,
2013-08-12 14:09:00,100.4,73.8,29.90,WSW,248,0.0,5.0,43,0.00,,,0.00,WeatherCatV1.15B25,2013-08-12 19:09:00,
2013-08-12 14:14:00,100.7,72.6,29.90,West,276,5.0,11.0,41,0.00,,,0.00,WeatherCatV1.15B25,2013-08-12 19:14:00,
2013-08-12 14:19:00,101.0,72.9,29.90,WSW,244,0.0,2.0,41,0.00,,,0.00,WeatherCatV1.15B25,2013-08-12 19:19:00,
2013-08-12 14:24:00,101.1,73.7,29.90,SW,219,0.0,2.0,42,0.00,,,0.00,WeatherCatV1.15B25,2013-08-12 19:24:00,
2013-08-12 14:29:00,101.0,72.2,29.89,SSW,204,0.0,0.0,40,0.00,,,0.00,WeatherCatV1.15B25,2013-08-12 19:29:00,
2013-08-12 14:34:00,100.6,73.3,29.89,WSW,237,0.0,4.0,42,0.00,,,0.00,WeatherCatV1.15B25,2013-08-12 19:34:00,
2013-08-12 14:39:00,100.8,72.0,29.89,West,274,1.0,5.0,40,0.00,,,0.00,WeatherCatV1.15B25,2013-08-12 19:39:00,
2013-08-12 14:44:00,101.0,72.9,29.88,WSW,240,0.0,2.0,41,0.00,,,0.00,WeatherCatV1.15B25,2013-08-12 19:44:00,
2013-08-12 14:49:00,101.2,72.3,29.88,SW,221,0.0,4.0,40,0.00,,,0.00,WeatherCatV1.15B25,2013-08-12 19:49:00,
2013-08-12 14:54:00,101.4,72.5,29.88,SW,230,3.0,5.0,40,0.00,,,0.00,WeatherCatV1.15B25,2013-08-12 19:54:00,
2013-08-12 14:59:00,101.6,72.7,29.88,WSW,247,6.0,6.0,40,0.00,,,0.00,WeatherCatV1.15B25,2013-08-12 19:59:00,
2013-08-12 15:04:00,101.6,71.9,29.88,SSW,206,0.0,5.0,39,0.00,,,0.00,WeatherCatV1.15B25,2013-08-12 20:04:00,
2013-08-12 15:09:00,101.5,72.6,29.88,SW,230,0.0,1.0,40,0.00,,,0.00,WeatherCatV1.15B25,2013-08-12 20:09:00,
2013-08-12 15:14:00,101.7,72.8,29.87,WNW,297,0.0,9.0,40,0.00,,,0.00,WeatherCatV1.15B25,2013-08-12 20:14:00,
2013-08-12 15:19:00,102.1,71.6,29.87,WNW,294,0.0,4.0,38,0.00,,,0.00,WeatherCatV1.15B25,2013-08-12 20:19:00,
2013-08-12 15:24:00,102.4,71.9,29.87,WSW,242,1.0,11.0,38,0.00,,,0.00,WeatherCatV1.15B25,2013-08-12 20:24:00,
2013-08-12 15:29:00,101.9,71.4,29.87,SSW,209,0.0,0.0,38,0.00,,,0.00,WeatherCatV1.15B25,2013-08-12 20:29:00,
2013-08-12 15:34:00,101.7,72.0,29.87,SSW,211,0.0,1.0,39,0.00,,,0.00,WeatherCatV1.15B25,2013-08-12 20:34:00,
2013-08-12 15:39:00,101.9,72.2,29.87,WSW,238,0.0,6.0,39,0.00,,,0.00,WeatherCatV1.15B25,2013-08-12 20:39:00,
2013-08-12 15:44:00,102.3,71.8,29.85,SSE,163,0.0,1.0,38,0.00,,,0.00,WeatherCatV1.15B25,2013-08-12 20:44:00,
2013-08-12 15:49:00,102.4,71.1,29.85,West,277,0.0,10.0,37,0.00,,,0.00,WeatherCatV1.15B25,2013-08-12 20:49:00,
2013-08-12 15:54:00,102.6,72.1,29.85,WSW,242,1.0,3.0,38,0.00,,,0.00,WeatherCatV1.15B25,2013-08-12 20:54:00,
2013-08-12 15:59:00,102.8,72.2,29.85,SW,236,0.0,4.0,38,0.00,,,0.00,WeatherCatV1.15B25,2013-08-12 20:59:00,
2013-08-12 16:04:00,103.0,71.6,29.85,SSW,205,1.0,4.0,37,0.00,,,0.00,WeatherCatV1.15B25,2013-08-12 21:04:00,
2013-08-12 16:09:00,103.2,71.0,29.85,SSE,162,2.0,6.0,36,0.00,,,0.00,WeatherCatV1.15B25,2013-08-12 21:09:00,
2013-08-12 16:14:00,103.1,72.5,29.84,SW,232,1.0,4.0,38,0.00,,,0.00,WeatherCatV1.15B25,2013-08-12 21:14:00,
2013-08-12 16:19:00,103.2,71.8,29.84,West,273,3.0,5.0,37,0.00,,,0.00,WeatherCatV1.15B25,2013-08-12 21:19:00,
2013-08-12 16:24:00,103.4,72.0,29.84,South,190,2.0,4.0,37,0.00,,,0.00,WeatherCatV1.15B25,2013-08-12 21:24:00,
2013-08-12 16:29:00,103.6,71.3,29.84,South,183,6.0,10.0,36,0.00,,,0.00,WeatherCatV1.15B25,2013-08-12 21:29:00,
2013-08-12 16:34:00,103.3,71.1,29.84,SW,227,4.0,4.0,36,0.00,,,0.00,WeatherCatV1.15B25,2013-08-12 21:34:00,
2013-08-12 16:39:00,102.9,71.5,29.84,SW,215,1.0,9.0,37,0.00,,,0.00,WeatherCatV1.15B25,2013-08-12 21:39:00,
2013-08-12 16:44:00,102.7,70.5,29.83,WSW,247,0.0,4.0,36,0.00,,,0.00,WeatherCatV1.15B25,2013-08-12 21:44:00,
2013-08-12 16:49:00,102.6,71.3,29.83,SW,215,0.0,1.0,37,0.00,,,0.00,WeatherCatV1.15B25,2013-08-12 21:49:00,
2013-08-12 16:54:00,102.5,71.2,29.83,South,186,0.0,3.0,37,0.00,,,0.00,WeatherCatV1.15B25,2013-08-12 21:54:00,
2013-08-12 16:59:00,102.3,70.2,29.82,SSW,192,0.0,5.0,36,0.00,,,0.00,WeatherCatV1.15B25,2013-08-12 21:59:00,
2013-08-12 17:04:00,102.4,71.1,29.82,SSE,153,2.0,6.0,37,0.00,,,0.00,WeatherCatV1.15B25,2013-08-12 22:04:00,
2013-08-12 17:09:00,102.1,70.0,29.82,SSW,196,0.0,2.0,36,0.00,,,0.00,WeatherCatV1.15B25,2013-08-12 22:09:00,
2013-08-12 17:14:00,102.2,70.9,29.82,South,184,0.0,2.0,37,0.00,,,0.00,WeatherCatV1.15B25,2013-08-12 22:14:00,
2013-08-12 17:19:00,102.3,70.2,29.82,WSW,241,0.0,6.0,36,0.00,,,0.00,WeatherCatV1.15B25,2013-08-12 22:19:00,
2013-08-12 17:24:00,102.2,69.3,29.82,SSW,209,5.0,8.0,35,0.00,,,0.00,WeatherCatV1.15B25,2013-08-12 22:24:00,
2013-08-12 17:29:00,101.8,69.8,29.82,SSW,204,2.0,7.0,36,0.00,,,0.00,WeatherCatV1.15B25,2013-08-12 22:29:00,
2013-08-12 17:34:00,101.5,70.3,29.82,SW,225,5.0,9.0,37,0.00,,,0.00,WeatherCatV1.15B25,2013-08-12 22:34:00,
2013-08-12 17:39:00,101.2,70.0,29.82,SW,223,4.0,5.0,37,0.00,,,0.00,WeatherCatV1.15B25,2013-08-12 22:39:00,
2013-08-12 17:44:00,101.0,69.9,29.82,SSW,209,0.0,0.0,37,0.00,,,0.00,WeatherCatV1.15B25,2013-08-12 22:44:00,
2013-08-12 17:49:00,100.9,69.8,29.82,South,190,0.0,1.0,37,0.00,,,0.00,WeatherCatV1.15B25,2013-08-12 22:49:00,
2013-08-12 17:54:00,100.8,69.7,29.82,South,187,5.0,6.0,37,0.00,,,0.00,WeatherCatV1.15B25,2013-08-12 22:54:00,
2013-08-12 17:59:00,100.7,68.8,29.82,SSW,207,3.0,4.0,36,0.00,,,0.00,WeatherCatV1.15B25,2013-08-12 22:59:00,
2013-08-12 18:04:00,100.4,68.5,29.82,SW,221,4.0,4.0,36,0.00,,,0.00,WeatherCatV1.15B25,2013-08-12 23:04:00,
2013-08-12 18:09:00,100.2,69.2,29.82,WSW,244,0.0,2.0,37,0.00,,,0.00,WeatherCatV1.15B25,2013-08-12 23:09:00,
2013-08-12 18:14:00,100.0,69.0,29.82,SSW,211,2.0,3.0,37,0.00,,,0.00,WeatherCatV1.15B25,2013-08-12 23:14:00,
2013-08-12 18:19:00,99.8,68.8,29.82,South,183,0.0,2.0,37,0.00,,,0.00,WeatherCatV1.15B25,2013-08-12 23:19:00,
2013-08-12 18:24:00,99.5,68.5,29.82,South,184,1.0,2.0,37,0.00,,,0.00,WeatherCatV1.15B25,2013-08-12 23:24:00,
2013-08-12 18:29:00,99.2,68.3,29.82,SSW,198,0.0,1.0,37,0.00,,,0.00,WeatherCatV1.15B25,2013-08-12 23:29:00,
2013-08-12 18:34:00,99.1,68.2,29.82,West,261,0.0,3.0,37,0.00,,,0.00,WeatherCatV1.15B25,2013-08-12 23:34:00,
2013-08-12 18:39:00,98.9,68.0,29.82,SW,229,0.0,3.0,37,0.00,,,0.00,WeatherCatV1.15B25,2013-08-12 23:39:00,
2013-08-12 18:44:00,98.8,67.9,29.82,SSW,209,0.0,7.0,37,0.00,,,0.00,WeatherCatV1.15B25,2013-08-12 23:44:00,
2013-08-12 18:49:00,98.5,67.7,29.82,SSW,194,2.0,5.0,37,0.00,,,0.00,WeatherCatV1.15B25,2013-08-12 23:49:00,
2013-08-12 18:54:00,98.3,67.5,29.82,SSW,213,0.0,1.0,37,0.00,,,0.00,WeatherCatV1.15B25,2013-08-12 23:54:00,
2013-08-12 18:59:00,98.0,68.0,29.82,SW,235,3.0,8.0,38,0.00,,,0.00,WeatherCatV1.15B25,2013-08-12 23:59:00,
2013-08-12 19:04:00,97.8,67.8,29.82,SW,226,2.0,3.0,38,0.00,,,0.00,WeatherCatV1.15B25,2013-08-13 00:04:00,
2013-08-12 19:09:00,97.5,68.3,29.82,South,186,2.0,2.0,39,0.00,,,0.00,WeatherCatV1.15B25,2013-08-13 00:09:00,
2013-08-12 19:14:00,97.3,68.1,29.82,SW,215,3.0,3.0,39,0.00,,,0.00,WeatherCatV1.15B25,2013-08-13 00:14:00,
2013-08-12 19:19:00,97.1,68.0,29.82,South,178,0.0,3.0,39,0.00,,,0.00,WeatherCatV1.15B25,2013-08-13 00:19:00,
2013-08-12 19:24:00,96.9,67.8,29.82,SSW,203,2.0,5.0,39,0.00,,,0.00,WeatherCatV1.15B25,2013-08-13 00:24:00,
2013-08-12 19:29:00,96.7,67.6,29.83,SSW,207,0.0,4.0,39,0.00,,,0.00,WeatherCatV1.15B25,2013-08-13 00:29:00,
2013-08-12 19:34:00,96.5,68.2,29.83,SSE,153,2.0,2.0,40,0.00,,,0.00,WeatherCatV1.15B25,2013-08-13 00:34:00,
2013-08-12 19:39:00,96.3,68.7,29.83,SSE,161,1.0,5.0,41,0.00,,,0.00,WeatherCatV1.15B25,2013-08-13 00:39:00,
2013-08-12 19:44:00,96.0,67.7,29.82,SSE,162,0.0,2.0,40,0.00,,,0.00,WeatherCatV1.15B25,2013-08-13 00:44:00,
2013-08-12 19:49:00,95.9,69.1,29.82,SSW,196,0.0,0.0,42,0.00,,,0.00,WeatherCatV1.15B25,2013-08-13 00:49:00,
2013-08-12 19:54:00,95.7,68.9,29.82,SSW,196,0.0,0.0,42,0.00,,,0.00,WeatherCatV1.15B25,2013-08-13 00:54:00,
2013-08-12 19:59:00,95.5,68.7,29.83,SSW,196,0.0,0.0,42,0.00,,,0.00,WeatherCatV1.15B25,2013-08-13 00:59:00,
2013-08-12 20:04:00,95.3,69.2,29.83,SSW,196,0.0,0.0,43,0.00,,,0.00,WeatherCatV1.15B25,2013-08-13 01:04:00,
2013-08-12 20:09:00,95.1,69.0,29.83,SSW,196,0.0,0.0,43,0.00,,,0.00,WeatherCatV1.15B25,2013-08-13 01:09:00,
2013-08-12 20:14:00,94.8,68.8,29.83,SSW,196,0.0,0.0,43,0.00,,,0.00,WeatherCatV1.15B25,2013-08-13 01:14:00,
2013-08-12 20:19:00,94.5,69.8,29.83,SSW,196,0.0,0.0,45,0.00,,,0.00,WeatherCatV1.15B25,2013-08-13 01:19:00,
2013-08-12 20:24:00,94.1,69.5,29.83,South,171,0.0,0.0,45,0.00,,,0.00,WeatherCatV1.15B25,2013-08-13 01:24:00,
2013-08-12 20:29:00,93.8,69.2,29.83,South,171,0.0,0.0,45,0.00,,,0.00,WeatherCatV1.15B25,2013-08-13 01:29:00,
2013-08-12 20:34:00,93.5,69.6,29.83,South,171,0.0,0.0,46,0.00,,,0.00,WeatherCatV1.15B25,2013-08-13 01:34:00,
2013-08-12 20:39:00,93.1,69.2,29.83,South,171,0.0,0.0,46,0.00,,,0.00,WeatherCatV1.15B25,2013-08-13 01:39:00,
2013-08-12 20:44:00,92.7,68.8,29.84,SSE,158,0.0,2.0,46,0.00,,,0.00,WeatherCatV1.15B25,2013-08-13 01:44:00,
2013-08-12 20:49:00,92.3,69.1,29.84,South,190,0.0,0.0,47,0.00,,,0.00,WeatherCatV1.15B25,2013-08-13 01:49:00,
2013-08-12 20:52:00,92.1,69.5,29.84,South,190,0.0,0.0,48,0.00,,,0.00,WeatherCatV1.15B25,2013-08-13 01:52:00,
2013-08-12 20:57:00,91.8,69.3,29.84,South,190,0.0,0.0,48,0.00,,,0.00,WeatherCatV1.15B25,2013-08-13 01:57:00,
2013-08-12 21:02:00,91.5,69.0,29.84,South,190,0.0,0.0,48,0.00,,,0.00,WeatherCatV1.15B25,2013-08-13 02:02:00,
2013-08-12 21:07:00,91.2,68.7,29.84,South,190,0.0,0.0,48,0.00,,,0.00,WeatherCatV1.15B25,2013-08-13 02:07:00,
2013-08-12 21:12:00,90.9,69.1,29.84,South,190,0.0,0.0,49,0.00,,,0.00,WeatherCatV1.15B25,2013-08-13 02:12:00,
2013-08-12 21:17:00,90.6,69.4,29.84,South,190,0.0,0.0,50,0.00,,,0.00,WeatherCatV1.15B25,2013-08-13 02:17:00,
2013-08-12 21:22:00,90.3,68.5,29.84,South,190,0.0,0.0,49,0.00,,,0.00,WeatherCatV1.15B25,2013-08-13 02:22:00,
2013-08-12 21:27:00,90.0,68.8,29.84,South,190,0.0,0.0,50,0.00,,,0.00,WeatherCatV1.15B25,2013-08-13 02:27:00,
2013-08-12 21:32:00,89.6,69.0,29.85,South,190,0.0,0.0,51,0.00,,,0.00,WeatherCatV1.15B25,2013-08-13 02:32:00,
2013-08-12 21:37:00,89.3,68.8,29.85,South,190,0.0,0.0,51,0.00,,,0.00,WeatherCatV1.15B25,2013-08-13 02:37:00,
2013-08-12 21:42:00,89.0,69.0,29.85,South,190,0.0,0.0,52,0.00,,,0.00,WeatherCatV1.15B25,2013-08-13 02:42:00,
2013-08-12 21:47:00,88.8,68.9,29.86,South,190,0.0,0.0,52,0.00,,,0.00,WeatherCatV1.15B25,2013-08-13 02:47:00,
2013-08-12 21:52:00,88.5,68.6,29.86,South,190,0.0,0.0,52,0.00,,,0.00,WeatherCatV1.15B25,2013-08-13 02:52:00,
2013-08-12 21:57:00,88.3,69.0,29.86,South,190,0.0,0.0,53,0.00,,,0.00,WeatherCatV1.15B25,2013-08-13 02:57:00,
2013-08-12 22:02:00,88.0,68.7,29.86,South,190,0.0,0.0,53,0.00,,,0.00,WeatherCatV1.15B25,2013-08-13 03:02:00,
2013-08-12 22:07:00,87.7,68.4,29.86,South,190,0.0,0.0,53,0.00,,,0.00,WeatherCatV1.15B25,2013-08-13 03:07:00,
2013-08-12 22:12:00,87.4,68.1,29.86,South,190,0.0,0.0,53,0.00,,,0.00,WeatherCatV1.15B25,2013-08-13 03:12:00,
2013-08-12 22:17:00,87.2,68.5,29.86,South,190,0.0,0.0,54,0.00,,,0.00,WeatherCatV1.15B25,2013-08-13 03:17:00,
2013-08-12 22:22:00,87.0,68.3,29.86,South,190,0.0,0.0,54,0.00,,,0.00,WeatherCatV1.15B25,2013-08-13 03:22:00,
2013-08-12 22:27:00,86.8,68.7,29.86,South,190,0.0,0.0,55,0.00,,,0.00,WeatherCatV1.15B25,2013-08-13 03:27:00,
2013-08-12 22:32:00,86.6,67.9,29.86,South,190,0.0,0.0,54,0.00,,,0.00,WeatherCatV1.15B25,2013-08-13 03:32:00,
2013-08-12 22:37:00,86.4,68.3,29.86,South,190,0.0,0.0,55,0.00,,,0.00,WeatherCatV1.15B25,2013-08-13 03:37:00,
2013-08-12 22:42:00,86.3,68.2,29.86,South,190,0.0,0.0,55,0.00,,,0.00,WeatherCatV1.15B25,2013-08-13 03:42:00,
2013-08-12 22:47:00,86.1,68.0,29.85,South,190,0.0,0.0,55,0.00,,,0.00,WeatherCatV1.15B25,2013-08-13 03:47:00,
2013-08-12 22:52:00,85.9,67.8,29.85,South,190,0.0,0.0,55,0.00,,,0.00,WeatherCatV1.15B25,2013-08-13 03:52:00,
2013-08-12 22:57:00,85.7,68.2,29.85,South,190,0.0,0.0,56,0.00,,,0.00,WeatherCatV1.15B25,2013-08-13 03:57:00,
2013-08-12 23:01:00,85.6,68.6,29.85,South,190,0.0,0.0,57,0.00,,,0.00,WeatherCatV1.15B25,2013-08-13 04:01:00,
2013-08-12 23:06:00,85.5,69.0,29.85,South,190,0.0,0.0,58,0.00,,,0.00,WeatherCatV1.15B25,2013-08-13 04:06:00,
2013-08-12 23:11:00,85.4,68.9,29.85,SSE,163,0.0,1.0,58,0.00,,,0.00,WeatherCatV1.15B25,2013-08-13 04:11:00,
2013-08-12 23:16:00,85.3,68.8,29.85,SSE,162,0.0,1.0,58,0.00,,,0.00,WeatherCatV1.15B25,2013-08-13 04:16:00,
2013-08-12 23:21:00,85.2,68.7,29.85,SE,145,0.0,3.0,58,0.00,,,0.00,WeatherCatV1.15B25,2013-08-13 04:21:00,
2013-08-12 23:26:00,85.1,69.1,29.85,SSE,148,0.0,3.0,59,0.00,,,0.00,WeatherCatV1.15B25,2013-08-13 04:26:00,
2013-08-12 23:31:00,85.0,69.0,29.85,SE,137,0.0,1.0,59,0.00,,,0.00,WeatherCatV1.15B25,2013-08-13 04:31:00,
2013-08-12 23:36:00,84.9,68.9,29.85,SSE,151,0.0,0.0,59,0.00,,,0.00,WeatherCatV1.15B25,2013-08-13 04:36:00,
2013-08-12 23:41:00,84.8,69.3,29.85,SE,125,0.0,0.0,60,0.00,,,0.00,WeatherCatV1.15B25,2013-08-13 04:41:00,
2013-08-12 23:46:00,84.8,69.3,29.84,SE,125,0.0,0.0,60,0.00,,,0.00,WeatherCatV1.15B25,2013-08-13 04:46:00,
2013-08-12 23:51:00,84.7,69.7,29.84,SE,125,0.0,0.0,61,0.00,,,0.00,WeatherCatV1.15B25,2013-08-13 04:51:00,
2013-08-12 23:56:00,84.7,69.7,29.84,SE,142,0.0,0.0,61,0.00,,,0.00,WeatherCatV1.15B25,2013-08-13 04:56:00,